Walhalla, ND

12:49 PM CDT on May 23, 2018 (GMT -0500)
Walhalla

Weather History for K96D - May, 2013

Change the Weather History Date:

Wednesday, May 29, 2013

  Actual Average (KGAF) Record (KGAF)
Temperature  
Mean Temperature 61 °F -  
Max Temperature 71 °F 76 °F 95 °F (1986)
Min Temperature 51 °F 50 °F 31 °F (1961)
Degree Days  
Heating Degree Days 4    
Growing Degree Days 11 (Base 50)    
Moisture  
Dew Point 58 °F    
Average Humidity 87    
Maximum Humidity 100    
Minimum Humidity 57    
Precipitation  
Precipitation 0.00 in - - ()
Sea Level Pressure  
Sea Level Pressure 29.67 in    
Wind  
Wind Speed 6 mph (NNW)    
Max Wind Speed 18 mph    
Max Gust Speed 24 mph    
Visibility 10 miles    
Events      
Averages and records for this station are not official NWS values.
T = Trace of Precipitation, MM = Missing Value Source: NWS Daily Summary

Daily Weather History Graph

Daily Weather History Graph

Search for Another Location

Airport or City:

Astronomy

May. 29, 2013 Rise Set
Actual Time 5:34 AM CDT 9:24 PM CDT
Civil Twilight 4:53 AM CDT 10:05 PM CDT
Nautical Twilight 3:57 AM CDT 11:01 PM CDT
Astronomical Twilight 2:32 AM CDT 12:28 AM CDT
Moon 12:35 AM CDT (5/29) 10:49 AM CDT (5/29)
Length of Visible Light 17h 11m
Length of Day
15h 50m
Waning Gibbous, 73% of the Moon is Illuminated
May 29
Waning Gibbous
May 31
Last Quarter
Jun 8
New
Jun 16
First Quarter
Jun 23
Full

Hourly Weather History & Observations

Time (CDT) Temp. Dew Point Humidity Pressure Visibility Wind Dir Wind Speed Gust Speed Precip Events Conditions
12:15 AM 57.2 °F 57.2 °F 100% 29.60 in 10.0 mi Calm Calm - N/A   Overcast
12:35 AM 57.2 °F 57.2 °F 100% 29.60 in 10.0 mi WSW 3.5 mph - N/A   Overcast
12:55 AM 57.2 °F 57.2 °F 100% 29.61 in 10.0 mi Calm Calm - N/A   Overcast
1:15 AM 57.2 °F 57.2 °F 100% 29.62 in 10.0 mi West 3.5 mph - N/A   Scattered Clouds
1:35 AM 57.2 °F 57.2 °F 100% 29.62 in 10.0 mi West 4.6 mph - N/A   Mostly Cloudy
1:55 AM 57.2 °F 57.2 °F 100% 29.62 in 10.0 mi West 5.8 mph - N/A   Overcast
2:15 AM 57.2 °F 57.2 °F 100% 29.63 in 10.0 mi West 5.8 mph - N/A   Overcast
2:35 AM 57.2 °F 57.2 °F 100% 29.64 in 10.0 mi West 4.6 mph - N/A   Overcast
2:55 AM 55.4 °F 55.4 °F 100% 29.64 in 10.0 mi West 4.6 mph - N/A   Mostly Cloudy
3:15 AM 55.4 °F 55.4 °F 100% 29.64 in 10.0 mi West 4.6 mph - N/A   Scattered Clouds
3:35 AM 55.4 °F 55.4 °F 100% 29.64 in 10.0 mi SW 4.6 mph - N/A   Mostly Cloudy
3:55 AM 55.4 °F 55.4 °F 100% 29.64 in 10.0 mi West 4.6 mph - N/A   Overcast
4:15 AM 55.4 °F 55.4 °F 100% 29.64 in 10.0 mi West 3.5 mph - N/A   Overcast
4:35 AM 55.4 °F 55.4 °F 100% 29.64 in 10.0 mi WSW 3.5 mph - N/A   Overcast
4:55 AM 53.6 °F 53.6 °F 100% 29.64 in 10.0 mi WSW 3.5 mph - N/A   Overcast
5:15 AM 53.6 °F 53.6 °F 100% 29.65 in 10.0 mi WSW 3.5 mph - N/A   Overcast
5:35 AM 53.6 °F 53.6 °F 100% 29.64 in 10.0 mi WSW 4.6 mph - N/A   Scattered Clouds
5:55 AM 51.8 °F 51.8 °F 100% 29.65 in 10.0 mi SSW 4.6 mph - N/A   Clear
6:15 AM 53.6 °F 53.6 °F 100% 29.65 in 10.0 mi WSW 3.5 mph - N/A   Clear
6:35 AM 53.6 °F 53.6 °F 100% 29.66 in 10.0 mi Calm Calm - N/A   Clear
6:55 AM 55.4 °F 55.4 °F 100% 29.67 in 10.0 mi Calm Calm - N/A   Clear
7:15 AM 55.4 °F 55.4 °F 100% 29.68 in 10.0 mi Calm Calm - N/A   Clear
7:35 AM 55.4 °F 55.4 °F 100% 29.68 in 10.0 mi West 3.5 mph - N/A   Mostly Cloudy
7:55 AM 55.4 °F 55.4 °F 100% 29.68 in 10.0 mi West 6.9 mph - N/A   Mostly Cloudy
8:15 AM 57.2 °F 57.2 °F 100% 29.67 in 10.0 mi WNW 6.9 mph - N/A   Clear
8:35 AM 59.0 °F 59.0 °F 100% 29.66 in 10.0 mi NW 8.1 mph - N/A   Clear
8:55 AM 60.8 °F 59.0 °F 94% 29.66 in 10.0 mi NNW 8.1 mph - N/A   Clear
9:15 AM 62.6 °F 60.8 °F 94% 29.67 in 10.0 mi NNW 6.9 mph - N/A   Clear
9:35 AM 62.6 °F 59.0 °F 88% 29.66 in 10.0 mi NNW 10.4 mph - N/A   Clear
9:55 AM 62.6 °F 59.0 °F 88% 29.66 in 10.0 mi NW 8.1 mph - N/A   Clear
10:15 AM 64.4 °F 59.0 °F 83% 29.67 in 10.0 mi NNW 6.9 mph - N/A   Clear
10:35 AM 64.4 °F 59.0 °F 83% 29.67 in 10.0 mi NW 4.6 mph - N/A   Clear
10:55 AM 64.4 °F 57.2 °F 77% 29.68 in 10.0 mi WNW 5.8 mph - N/A   Clear
11:15 AM 66.2 °F 55.4 °F 68% 29.68 in 10.0 mi NW 9.2 mph - N/A   Clear
11:35 AM 68.0 °F 57.2 °F 68% 29.69 in 10.0 mi NNW 8.1 mph - N/A   Clear
11:55 AM 66.2 °F 57.2 °F 73% 29.69 in 10.0 mi North 5.8 mph - N/A   Clear
12:15 PM 68.0 °F 57.2 °F 68% 29.69 in 10.0 mi North 8.1 mph - N/A   Partly Cloudy
12:35 PM 68.0 °F 57.2 °F 68% 29.69 in 10.0 mi NE 3.5 mph - N/A   Partly Cloudy
12:55 PM 68.0 °F 57.2 °F 68% 29.69 in 10.0 mi North 6.9 mph - N/A   Clear
1:15 PM 68.0 °F 57.2 °F 68% 29.69 in 10.0 mi ENE 4.6 mph - N/A   Clear
1:35 PM 69.8 °F 55.4 °F 60% 29.69 in 10.0 mi NNE 9.2 mph - N/A   Partly Cloudy
1:55 PM 71.6 °F 55.4 °F 57% 29.69 in 10.0 mi NE 6.9 mph - N/A   Partly Cloudy
2:15 PM 69.8 °F 57.2 °F 64% 29.69 in 10.0 mi NNE 13.8 mph - N/A   Mostly Cloudy
2:35 PM 69.8 °F 59.0 °F 68% 29.69 in 10.0 mi NNE 10.4 mph - N/A   Mostly Cloudy
2:55 PM 69.8 °F 59.0 °F 68% 29.69 in 10.0 mi NNE 11.5 mph - N/A   Partly Cloudy
3:15 PM 69.8 °F 59.0 °F 68% 29.70 in 10.0 mi North 10.4 mph 17.3 mph N/A   Mostly Cloudy
3:35 PM 69.8 °F 60.8 °F 73% 29.70 in 10.0 mi North 15.0 mph - N/A   Mostly Cloudy
3:55 PM 68.0 °F 59.0 °F 73% 29.69 in 10.0 mi North 12.7 mph 19.6 mph N/A   Partly Cloudy
4:15 PM 69.8 °F 59.0 °F 68% 29.69 in 10.0 mi NNE 15.0 mph - N/A   Scattered Clouds
4:35 PM 68.0 °F 60.8 °F 78% 29.69 in 10.0 mi North 13.8 mph - N/A   Mostly Cloudy
4:55 PM 68.0 °F 59.0 °F 73% 29.69 in 10.0 mi NNE 13.8 mph - N/A   Scattered Clouds
5:15 PM 68.0 °F 59.0 °F 73% 29.69 in 10.0 mi North 10.4 mph - N/A   Mostly Cloudy
5:35 PM 68.0 °F 59.0 °F 73% 29.69 in 10.0 mi North 12.7 mph - N/A   Mostly Cloudy
5:55 PM 68.0 °F 59.0 °F 73% 29.68 in 10.0 mi NNE 16.1 mph - N/A   Mostly Cloudy
6:15 PM 68.0 °F 59.0 °F 73% 29.67 in 10.0 mi NNE 9.2 mph 16.1 mph N/A   Partly Cloudy
6:35 PM 68.0 °F 59.0 °F 73% 29.67 in 10.0 mi North 18.4 mph 24.2 mph N/A   Partly Cloudy
6:55 PM 68.0 °F 59.0 °F 73% 29.67 in 10.0 mi North 15.0 mph 19.6 mph N/A   Partly Cloudy
7:15 PM 68.0 °F 59.0 °F 73% 29.66 in 10.0 mi North 18.4 mph - N/A   Clear
7:35 PM 68.0 °F 59.0 °F 73% 29.65 in 10.0 mi North 16.1 mph 19.6 mph N/A   Clear
7:55 PM 66.2 °F 59.0 °F 78% 29.67 in 10.0 mi NNE 16.1 mph - N/A   Clear
8:15 PM 66.2 °F 60.8 °F 83% 29.67 in 10.0 mi North 10.4 mph - N/A   Clear
8:35 PM 66.2 °F 60.8 °F 83% 29.67 in 10.0 mi North 12.7 mph - N/A   Clear
8:55 PM 64.4 °F 60.8 °F 88% 29.66 in 10.0 mi NNE 13.8 mph - N/A   Scattered Clouds
9:15 PM 64.4 °F 62.6 °F 94% 29.67 in 10.0 mi NNE 16.1 mph 20.7 mph N/A   Mostly Cloudy
9:35 PM 62.6 °F 62.6 °F 100% 29.68 in 10.0 mi NNE 15.0 mph 19.6 mph N/A   Partly Cloudy
9:55 PM 62.6 °F 62.6 °F 100% 29.69 in 10.0 mi NNE 11.5 mph - N/A   Scattered Clouds
10:15 PM 62.6 °F 62.6 °F 100% 29.70 in 10.0 mi NNE 12.7 mph - N/A   Mostly Cloudy
10:35 PM 60.8 °F 60.8 °F 100% 29.71 in 10.0 mi North 10.4 mph - N/A   Mostly Cloudy
10:55 PM 60.8 °F 60.8 °F 100% 29.70 in 10.0 mi North 11.5 mph - N/A   Mostly Cloudy
11:15 PM 59.0 °F 59.0 °F 100% 29.70 in 10.0 mi North 11.5 mph - N/A   Overcast
11:35 PM 59.0 °F 59.0 °F 100% 29.71 in 10.0 mi NNE 10.4 mph 17.3 mph N/A   Overcast
11:55 PM 59.0 °F 59.0 °F 100% 29.71 in 10.0 mi North 9.2 mph - N/A   Overcast